Regional Weather Roundup
Issued by NWS

Home | Current Version | Previous Version | Graphics & Text | Print | Product List | Glossary On
Versions: 1 2 3 4 5 6 7 8 9 10 11 12 13 14 15 16 17 18 19 20 21 22 23 24 25 26 27 28 29 30 31 32 33 34 35 36 37 38 39 40 41 42 43 44 45 46 47 48 49 50
000
ASUS45 KABQ 251801
RWRNM
WEATHER ROUNDUP FOR NEW MEXICO
NATIONAL WEATHER SERVICE ALBUQUERQUE NM
1100 AM MST SUN JAN 25 2015

NOTE: "FAIR" MEANS FEW OR NO CLOUDS BELOW 12,000 FEET AGL WITH NO
       SIGNIFICANT WEATHER OR OBSTRUCTIONS TO VISION.

      THIS PRODUCT IS RELEASED AS TWO VERSIONS.  ONE VERSION NEAR
      THE TOP OF THE HOUR CONTAINING PRELIMINARY DATA FROM ALBUQUERQUE
      AND OTHER STATIONS.  A FINAL VERSION WITH ADDITIONAL DATA IS
      ISSUED ABOUT 10 MINUTES AFTER THE HOUR.

NMZ501-503-504-510>518-251900-
NORTHWEST PLATEAU/NORTHCENTRAL MOUNTAINS

CITY           SKY/WX    TMP DP  RH WIND       PRES   REMARKS
FARMINGTON     SUNNY     35  20  54 CALM      30.36S
6HR MIN TEMP:  18; 6HR MAX TEMP:  35;

SANTA FE       SUNNY     42  18  37 N12       30.29F
6HR MIN TEMP:  23; 6HR MAX TEMP:  42;

TAOS           SUNNY     37  19  48 CALM      30.34R

$$
NMZ402-403-502-505>509-251900-
WESTCENTRAL MOUNTAINS/SOUTHWEST MOUNTAINS

CITY           SKY/WX    TMP DP  RH WIND       PRES   REMARKS
GALLUP         SUNNY     40  20  44 CALM      30.35S
6HR MIN TEMP:  16; 6HR MAX TEMP:  41;

SILVER CITY    SUNNY     54  14  20 CALM      30.30R

$$
NMZ407-409-411-412-251900-
SOUTHERN DESERTS

CITY           SKY/WX    TMP DP  RH WIND       PRES   REMARKS
DEMING         SUNNY     52  24  33 E14G21    30.29R
6HR MIN TEMP:  25; 6HR MAX TEMP:  52;

HOLLOMAN AFB   MOSUNNY   45  29  54 SW2       30.29S
ALAMOGORDO     MOSUNNY   46  27  46 S5        30.31S
T OR C         MOSUNNY   46  22  38 NE5       30.31S
6HR MIN TEMP:  30; 6HR MAX TEMP:  46;


$$
NMZ519>523-251900-
CENTRAL VALLEYS/CENTRAL HIGHLANDS

CITY           SKY/WX    TMP DP  RH WIND       PRES   REMARKS
ALBUQUERQUE    MOSUNNY   44  19  36 NW6       30.34R
6HR MIN TEMP:  26; 6HR MAX TEMP:  44;

DOUBLE EAGLE   SUNNY     45  19  36 VRB6      30.33R
CLINES CORNERS SUNNY     37  21  52 NW18      30.26S WCI  27
6HR MIN TEMP:  21; 6HR MAX TEMP:  37;

BELEN          FAIR      44  22  42 NW5       30.34S
6HR MIN TEMP:  23; 6HR MAX TEMP:  44;

SOCORRO        NOT AVBL

$$
NMZ524>526-539-540-251900-
SOUTHCENTRAL MOUNTAINS

CITY           SKY/WX    TMP DP  RH WIND       PRES   REMARKS
RUIDOSO        NOT AVBL

$$
NMZ527>531-251900-
NORTHEAST HIGHLANDS/NORTHEAST PLAINS

CITY           SKY/WX    TMP DP  RH WIND       PRES   REMARKS
LAS VEGAS      SUNNY     42  20  41 S14       30.25S
6HR MIN TEMP:  24; 6HR MAX TEMP:  42;

RATON          SUNNY     40  22  48 S6        30.27R
6HR MIN TEMP:  23; 6HR MAX TEMP:  41;

CLAYTON        SUNNY     44  30  57 NW8       30.23R
6HR MIN TEMP:  33; 6HR MAX TEMP:  44;


$$
NMZ532>537-251900-
EASTCENTRAL PLAINS

CITY           SKY/WX    TMP DP  RH WIND       PRES   REMARKS
TUCUMCARI      SUNNY     45  30  55 CALM      30.27R
6HR MIN TEMP:  22; 6HR MAX TEMP:  45; 6HR PCP: TRACE;

CANNON AFB     SUNNY     42  29  60 W8        30.28R
6HR MIN TEMP:  32; 6HR MAX TEMP:  42;

CLOVIS AIRPORT SUNNY     46  28  49 NW9       30.28R

$$
NMZ028-029-538-251900-
SOUTHEAST PLAINS

CITY           SKY/WX    TMP DP  RH WIND       PRES   REMARKS
ROSWELL        SUNNY     51  27  39 N6        30.33S
6HR MIN TEMP:  29; 6HR MAX TEMP:  51;

ARTESIA        MOSUNNY   52  27  37 NW7       30.34F
CARLSBAD       MOSUNNY   54  21  27 NW5       30.32S
6HR MIN TEMP:  32; 6HR MAX TEMP:  54;

HOBBS          SUNNY     54  23  30 N14       30.30R


$$


USA.gov is the U.S. government's official web portal to all federal, state and local government web resources and services.